TimeEST,TemperatureF,Dew PointF,Humidity,Sea Level PressureIn,VisibilityMPH,Wind Direction,Wind SpeedMPH,Gust SpeedMPH,PrecipitationIn,Events,Conditions,WindDirDegrees,DateUTC
12:53 AM,23.0,12.0,63,30.48,10.0,Calm,Calm,-,N/A,,Clear,0,2013-01-28 05:53:00
1:53 AM,21.0,12.9,71,30.49,10.0,Calm,Calm,-,N/A,,Clear,0,2013-01-28 06:53:00
2:53 AM,21.9,14.0,72,30.46,10.0,Calm,Calm,-,N/A,,Clear,0,2013-01-28 07:53:00
3:53 AM,21.9,14.0,72,30.46,10.0,Calm,Calm,-,N/A,,Clear,0,2013-01-28 08:53:00
4:53 AM,24.1,18.0,77,30.43,10.0,Calm,Calm,-,N/A,,Mostly Cloudy,0,2013-01-28 09:53:00
5:53 AM,24.1,18.0,77,30.42,10.0,Calm,Calm,-,N/A,,Overcast,0,2013-01-28 10:53:00
6:53 AM,28.0,19.0,69,30.43,10.0,Calm,Calm,-,N/A,,Overcast,0,2013-01-28 11:53:00
7:53 AM,37.0,18.0,46,30.42,10.0,Calm,Calm,-,N/A,,Overcast,0,2013-01-28 12:53:00
8:53 AM,35.1,19.0,52,30.42,8.0,Calm,Calm,-,N/A,,Overcast,0,2013-01-28 13:53:00
9:53 AM,54.0,21.0,28,30.40,1.8,WSW,9.2,-,0.00,,Unknown,240,2013-01-28 14:53:00
9:56 AM,33.8,21.2,60,30.39,3.0,West,9.2,-,0.00,Snow,Light Snow,260,2013-01-28 14:56:00
9:58 AM,33.8,21.2,60,30.39,5.0,WSW,9.2,-,0.00,Snow,Light Snow,250,2013-01-28 14:58:00
10:53 AM,33.8,21.0,60,30.37,3.0,SW,10.4,-,0.00,Snow,Light Snow,230,2013-01-28 15:53:00
11:11 AM,33.8,26.6,75,30.34,2.5,SSW,10.4,-,0.00,Snow,Light Snow,210,2013-01-28 16:11:00
11:17 AM,33.8,26.6,75,30.34,2.5,SW,9.2,-,0.00,Snow,Light Snow,220,2013-01-28 16:17:00
11:40 AM,33.8,26.6,75,30.32,3.0,SW,10.4,-,0.00,Snow,Light Snow,220,2013-01-28 16:40:00
11:44 AM,33.8,26.6,75,30.32,2.5,SW,10.4,-,0.00,Snow,Light Snow,220,2013-01-28 16:44:00
11:53 AM,33.8,27.0,76,30.31,2.5,SW,9.2,-,0.00,Snow,Light Snow,220,2013-01-28 16:53:00
12:11 PM,50.0,28.4,43,30.30,2.5,SW,9.2,-,0.00,,Unknown,220,2013-01-28 17:11:00
12:27 PM,50.0,30.2,47,30.28,3.0,SSW,12.7,-,0.00,,Unknown,210,2013-01-28 17:27:00
12:39 PM,50.0,30.2,47,30.26,4.0,SSW,10.4,-,0.00,,Unknown,200,2013-01-28 17:39:00
12:53 PM,50.0,30.0,46,30.25,3.0,SSW,12.7,20.7,0.00,,Unknown,210,2013-01-28 17:53:00
1:53 PM,33.8,31.1,90,30.19,4.0,SSW,13.8,-,0.01,Snow,Light Snow,210,2013-01-28 18:53:00
2:05 PM,48.2,30.2,50,30.18,4.0,SSW,15.0,-,0.00,,Unknown,210,2013-01-28 19:05:00
2:31 PM,35.6,32.0,87,30.16,3.0,SSW,12.7,-,0.01,Snow,Light Snow,210,2013-01-28 19:31:00
2:53 PM,35.6,31.1,84,30.16,3.0,SW,12.7,-,0.01,Snow,Light Snow,220,2013-01-28 19:53:00
3:06 PM,35.6,32.0,87,30.13,2.5,SSW,13.8,-,0.02,,Overcast,210,2013-01-28 20:06:00
3:29 PM,35.6,33.8,93,30.13,2.0,SW,12.7,-,0.03,,Overcast,220,2013-01-28 20:29:00
3:39 PM,35.6,33.8,93,30.12,2.0,SW,10.4,-,0.04,,Overcast,220,2013-01-28 20:39:00
3:53 PM,35.1,33.1,92,30.13,2.0,SW,12.7,-,0.07,,Overcast,220,2013-01-28 20:53:00
3:55 PM,35.6,33.8,93,30.12,1.8,SW,10.4,-,N/A,,Overcast,220,2013-01-28 20:55:00
4:05 PM,35.6,33.8,93,30.12,1.8,SW,12.7,-,N/A,,Overcast,230,2013-01-28 21:05:00
4:16 PM,35.6,33.8,93,30.11,1.8,SW,12.7,-,N/A,Rain,Rain,220,2013-01-28 21:16:00
4:53 PM,35.1,33.1,92,30.10,1.8,SW,11.5,-,N/A,Rain,Light Rain,220,2013-01-28 21:53:00
5:00 PM,33.8,33.8,100,30.09,1.8,SW,10.4,-,0.01,Rain,Rain,230,2013-01-28 22:00:00
5:09 PM,33.8,33.8,100,30.09,1.8,SW,6.9,-,0.02,Rain,Light Rain,230,2013-01-28 22:09:00
5:32 PM,33.8,33.8,100,30.08,1.8,SW,9.2,-,0.02,Rain,Light Rain,230,2013-01-28 22:32:00
5:41 PM,33.8,32.0,93,30.08,1.8,SW,8.1,-,0.02,,Overcast,230,2013-01-28 22:41:00
5:53 PM,34.0,32.0,92,30.08,1.8,SW,6.9,-,0.02,,Overcast,230,2013-01-28 22:53:00
6:53 PM,34.0,32.0,92,30.07,1.8,WSW,5.8,-,0.00,Rain,Light Rain,240,2013-01-28 23:53:00
7:53 PM,34.0,33.1,96,30.06,1.8,WSW,6.9,-,0.03,Rain,Rain,240,2013-01-29 00:53:00
8:53 PM,34.0,33.1,96,30.05,1.8,West,5.8,-,0.00,,Overcast,260,2013-01-29 01:53:00
9:12 PM,33.8,33.8,100,30.03,2.5,WSW,8.1,-,N/A,,Overcast,250,2013-01-29 02:12:00
9:53 PM,34.0,33.1,96,30.02,2.5,West,8.1,-,N/A,,Overcast,260,2013-01-29 02:53:00
10:10 PM,35.6,33.8,93,30.02,2.5,West,8.1,-,N/A,,Overcast,260,2013-01-29 03:10:00
10:53 PM,35.1,33.1,92,30.01,2.0,WSW,8.1,-,N/A,,Overcast,250,2013-01-29 03:53:00
11:01 PM,35.6,33.8,93,30.01,3.0,WSW,6.9,-,N/A,,Overcast,250,2013-01-29 04:01:00
11:28 PM,35.6,33.8,93,30.01,3.0,WSW,8.1,-,N/A,,Overcast,250,2013-01-29 04:28:00
11:53 PM,35.1,33.1,92,30.01,3.0,WSW,5.8,-,N/A,,Overcast,250,2013-01-29 04:53:00